BEL56L LIMC-EBBR

Flight info

Callsign BEL56L
Flight time N/A
Altitude 34000
Route AOSTA DCT ORSUD DCT MOLUS DCT GILIR DCT PENDU DCT IXILU DCT GIVOR/N0429F320 DCT SORAL DCT IBERA N853 DIK Y37 BATTY
Aircraft A20N/M-SDE2E3FGHIRWXY/LB1

Departure

Time 2026-04-30 14:32
Airport Milan Malpensa International Airport (LIMC)

Arrival

Time N/A
Airport Brussels Airport (EBBR)
Time Latitude Longitude Altitude Speed Heading
2026-04-30 13:58 45.62548 8.71672 743 ft 0 kts 169°
2026-04-30 14:17 45.62558 8.71669 743 ft 2 kts 175°
2026-04-30 14:17 45.62573 8.71667 743 ft 2 kts 172°
2026-04-30 14:17 45.62588 8.71664 744 ft 2 kts 173°
2026-04-30 14:17 45.62600 8.71662 744 ft 0 kts 172°
2026-04-30 14:18 45.62612 8.71657 744 ft 2 kts 141°
2026-04-30 14:18 45.62622 8.71639 744 ft 2 kts 109°
2026-04-30 14:18 45.62622 8.71612 745 ft 1 kts 78°
2026-04-30 14:22 45.62635 8.71707 743 ft 9 kts 78°
2026-04-30 14:22 45.62650 8.71818 740 ft 12 kts 79°
2026-04-30 14:23 45.62677 8.72019 737 ft 13 kts 78°
2026-04-30 14:23 45.62574 8.72161 734 ft 13 kts 169°
2026-04-30 14:24 45.62383 8.72215 733 ft 14 kts 169°
2026-04-30 14:24 45.62276 8.72245 731 ft 17 kts 169°
2026-04-30 14:25 45.62018 8.72315 724 ft 20 kts 169°
2026-04-30 14:25 45.61713 8.72400 713 ft 23 kts 169°
2026-04-30 14:26 45.61389 8.72490 703 ft 25 kts 169°
2026-04-30 14:26 45.61229 8.72535 698 ft 19 kts 169°
2026-04-30 14:26 45.61087 8.72592 694 ft 1 kts 130°
2026-04-30 14:27 45.61086 8.72594 694 ft 1 kts 128°
2026-04-30 14:27 45.61076 8.72633 693 ft 6 kts 94°
2026-04-30 14:27 45.61086 8.72721 693 ft 10 kts 79°
2026-04-30 14:28 45.61120 8.72967 691 ft 15 kts 76°
2026-04-30 14:28 45.61182 8.73096 689 ft 16 kts 35°
2026-04-30 14:28 45.61276 8.73187 690 ft 16 kts 35°
2026-04-30 14:28 45.61367 8.73265 692 ft 13 kts 14°
2026-04-30 14:29 45.61530 8.73233 697 ft 10 kts 349°
2026-04-30 14:29 45.61615 8.73288 697 ft 10 kts 70°
2026-04-30 14:30 45.61612 8.73482 696 ft 6 kts 119°
2026-04-30 14:31 45.61586 8.73610 696 ft 7 kts 85°
2026-04-30 14:31 45.61622 8.73731 697 ft 6 kts 17°
2026-04-30 14:31 45.61766 8.73697 699 ft 50 kts 349°
2026-04-30 14:32 45.63348 8.73257 776 ft 166 kts 350°
2026-04-30 14:32 45.64496 8.72953 1295 ft 173 kts 352°
2026-04-30 14:32 45.65702 8.72833 1994 ft 175 kts
2026-04-30 14:33 45.66917 8.72877 2595 ft 184 kts 360°
2026-04-30 14:33 45.69699 8.72729 3493 ft 222 kts 358°
2026-04-30 14:33 45.71306 8.72570 4145 ft 235 kts 348°
2026-04-30 14:34 45.72732 8.71563 5009 ft 236 kts 315°
2026-04-30 14:34 45.73539 8.69537 5864 ft 239 kts 281°
2026-04-30 14:34 45.73464 8.67194 6561 ft 249 kts 251°
2026-04-30 14:34 45.72654 8.64882 7102 ft 266 kts 240°
2026-04-30 14:35 45.71029 8.60949 8257 ft 283 kts 240°
2026-04-30 14:35 45.69706 8.57721 9404 ft 287 kts 241°
2026-04-30 14:35 45.68717 8.55276 10218 ft 290 kts 241°
2026-04-30 14:36 45.67703 8.52756 10934 ft 297 kts 241°
2026-04-30 14:36 45.66645 8.50123 11342 ft 315 kts 241°
2026-04-30 14:36 45.65526 8.47337 11727 ft 332 kts 241°
2026-04-30 14:36 45.64368 8.44462 12356 ft 339 kts 241°
2026-04-30 14:37 45.63116 8.41577 13150 ft 342 kts 237°
2026-04-30 14:37 45.61713 8.38835 13910 ft 345 kts 233°
2026-04-30 14:37 45.60180 8.36183 14641 ft 349 kts 232°
2026-04-30 14:37 45.58844 8.33317 15320 ft 350 kts 248°
2026-04-30 14:38 45.58282 8.29980 16007 ft 350 kts 269°
2026-04-30 14:38 45.58594 8.26529 16714 ft 350 kts 287°
2026-04-30 14:38 45.59336 8.23236 17419 ft 352 kts 289°
2026-04-30 14:38 45.60123 8.19873 18073 ft 355 kts 289°
2026-04-30 14:39 45.60902 8.16553 18717 ft 357 kts 289°
2026-04-30 14:39 45.61686 8.13200 19357 ft 360 kts 289°
2026-04-30 14:39 45.62480 8.09794 19984 ft 362 kts 289°
2026-04-30 14:40 45.64074 8.02925 21187 ft 366 kts 289°
2026-04-30 14:40 45.64841 7.99609 21743 ft 368 kts 289°
2026-04-30 14:40 45.65648 7.96116 22310 ft 371 kts 289°
2026-04-30 14:40 45.66457 7.92609 22856 ft 373 kts 289°
2026-04-30 14:41 45.67268 7.89087 23282 ft 378 kts 289°
2026-04-30 14:41 45.68093 7.85492 23734 ft 382 kts 289°
2026-04-30 14:41 45.68926 7.81864 24235 ft 384 kts 289°
2026-04-30 14:41 45.69764 7.78204 24730 ft 386 kts 289°
2026-04-30 14:42 45.70603 7.74533 25205 ft 388 kts 289°
2026-04-30 14:42 45.71444 7.70849 25649 ft 391 kts 289°
2026-04-30 14:42 45.72276 7.67195 26077 ft 393 kts 289°
2026-04-30 14:42 45.73128 7.63446 26508 ft 395 kts 289°
2026-04-30 14:43 45.73981 7.59694 26929 ft 396 kts 289°
2026-04-30 14:43 45.74828 7.55956 27321 ft 398 kts 289°
2026-04-30 14:43 45.75691 7.52139 27710 ft 400 kts 289°
2026-04-30 14:43 45.76539 7.48379 28090 ft 402 kts 289°
2026-04-30 14:44 45.77402 7.44549 28463 ft 403 kts 289°
2026-04-30 14:44 45.78302 7.40749 28925 ft 402 kts 293°
2026-04-30 14:44 45.79545 7.37191 29427 ft 399 kts 302°
2026-04-30 14:44 45.81176 7.33966 29923 ft 398 kts 309°
2026-04-30 14:45 45.83108 7.31198 30401 ft 398 kts 317°
2026-04-30 14:45 45.85316 7.28777 30887 ft 397 kts 321°
2026-04-30 14:45 45.87528 7.26517 31341 ft 395 kts 322°
2026-04-30 14:45 45.89787 7.24236 31772 ft 394 kts 322°
2026-04-30 14:46 45.92016 7.21981 32198 ft 392 kts 322°
2026-04-30 14:46 45.94216 7.19747 32597 ft 391 kts 322°
2026-04-30 14:46 45.96440 7.17481 32926 ft 391 kts 321°
2026-04-30 14:46 45.97919 7.15967 33109 ft 392 kts 321°
2026-04-30 14:47 46.00881 7.12932 33459 ft 393 kts 321°
2026-04-30 14:47 46.03090 7.10666 33707 ft 395 kts 321°
2026-04-30 14:47 46.05328 7.08369 33939 ft 396 kts 321°
2026-04-30 14:47 46.07573 7.06062 34122 ft 398 kts 321°
2026-04-30 14:48 46.12115 7.01398 34128 ft 400 kts 321°
2026-04-30 14:48 46.16649 6.96753 34119 ft 401 kts 321°
2026-04-30 14:49 46.21187 6.92078 34113 ft 402 kts 321°
2026-04-30 14:49 46.25724 6.87385 34110 ft 402 kts 321°
2026-04-30 14:50 46.32503 6.80350 34116 ft 402 kts 321°
2026-04-30 14:51 46.39323 6.73250 34143 ft 402 kts 321°
2026-04-30 14:52 46.46381 6.66665 34174 ft 405 kts 328°
2026-04-30 14:52 46.53961 6.61219 34180 ft 407 kts 330°
2026-04-30 14:53 46.61577 6.55852 34178 ft 407 kts 330°
2026-04-30 14:54 46.71705 6.48681 34181 ft 406 kts 330°
2026-04-30 14:55 46.79300 6.43283 34189 ft 406 kts 330°
2026-04-30 14:56 46.89440 6.36049 34205 ft 406 kts 330°
2026-04-30 14:57 46.96993 6.30626 34216 ft 401 kts 328°
2026-04-30 14:58 47.06893 6.23502 34217 ft 395 kts 327°
2026-04-30 14:58 47.14265 6.18194 34209 ft 395 kts 327°
2026-04-30 15:00 47.26563 6.09314 34173 ft 395 kts 328°
2026-04-30 15:01 47.37145 6.04282 34159 ft 410 kts 342°
2026-04-30 15:01 47.45794 6.03462 34162 ft 420 kts 352°
2026-04-30 15:02 47.51624 6.03599 34162 ft 421 kts 353°
2026-04-30 15:03 47.66200 6.03953 34162 ft 421 kts 353°
2026-04-30 15:04 47.80852 6.06652 34163 ft 435 kts
2026-04-30 15:06 47.95483 6.12183 34166 ft 435 kts
2026-04-30 15:07 48.07165 6.16606 34173 ft 435 kts
2026-04-30 15:08 48.18853 6.21041 34183 ft 435 kts
2026-04-30 15:09 48.33453 6.26617 34188 ft 435 kts
2026-04-30 15:10 48.45147 6.31110 34207 ft 435 kts
2026-04-30 15:11 48.62643 6.37836 34239 ft 432 kts
2026-04-30 15:13 48.77268 6.40288 34243 ft 423 kts 355°
2026-04-30 15:14 48.97768 6.42354 34242 ft 423 kts 355°
2026-04-30 15:16 49.12367 6.42492 34240 ft 415 kts 342°
2026-04-30 15:17 49.23425 6.38835 34243 ft 405 kts 334°
2026-04-30 15:19 49.45003 6.29905 34258 ft 405 kts 334°